TimePST,TemperatureF,Dew PointF,Humidity,Sea Level PressureIn,VisibilityMPH,Wind Direction,Wind SpeedMPH,Gust SpeedMPH,PrecipitationIn,Events,Conditions,WindDirDegrees,DateUTC
12:02 AM,33.8,33.8,100,30.26,1.5,Calm,Calm,-,N/A,,Clear,0,2012-11-25 08:02:00
12:04 AM,33.8,33.8,100,30.26,3.0,Calm,Calm,-,N/A,,Partly Cloudy,0,2012-11-25 08:04:00
12:12 AM,35.6,33.8,93,30.26,2.0,Calm,Calm,-,N/A,,Scattered Clouds,0,2012-11-25 08:12:00
12:21 AM,33.8,33.8,100,30.27,2.5,Calm,Calm,-,N/A,,Mostly Cloudy,0,2012-11-25 08:21:00
12:27 AM,35.6,33.8,93,30.26,2.0,Calm,Calm,-,N/A,,Mostly Cloudy,0,2012-11-25 08:27:00
12:38 AM,37.4,35.6,93,30.26,6.0,Calm,Calm,-,N/A,,Overcast,0,2012-11-25 08:38:00
12:53 AM,41.0,39.0,93,30.27,2.0,Calm,Calm,-,N/A,,Overcast,0,2012-11-25 08:53:00
1:08 AM,41.0,39.2,93,30.26,3.0,Calm,Calm,-,N/A,,Overcast,0,2012-11-25 09:08:00
1:53 AM,41.0,39.9,96,30.27,6.0,NNW,3.5,-,0.01,,Overcast,330,2012-11-25 09:53:00
2:29 AM,42.8,39.2,87,30.28,9.0,Variable,3.5,-,N/A,,Overcast,0,2012-11-25 10:29:00
2:53 AM,42.1,39.9,92,30.28,9.0,Calm,Calm,-,N/A,,Overcast,0,2012-11-25 10:53:00
3:53 AM,42.1,39.9,92,30.28,7.0,Calm,Calm,-,N/A,,Overcast,0,2012-11-25 11:53:00
4:53 AM,41.0,39.0,93,30.28,9.0,Calm,Calm,-,N/A,,Overcast,0,2012-11-25 12:53:00
5:09 AM,39.2,37.4,93,30.28,6.0,East,4.6,-,N/A,,Overcast,80,2012-11-25 13:09:00
5:53 AM,39.0,37.0,93,30.28,10.0,ENE,3.5,-,N/A,,Overcast,60,2012-11-25 13:53:00
6:53 AM,39.0,37.9,96,30.29,5.0,NE,3.5,-,N/A,,Overcast,50,2012-11-25 14:53:00
7:48 AM,39.2,37.4,93,30.29,2.5,Calm,Calm,-,N/A,,Overcast,0,2012-11-25 15:48:00
7:53 AM,39.0,37.9,96,30.30,2.0,North,4.6,-,N/A,,Overcast,10,2012-11-25 15:53:00
7:57 AM,39.2,37.4,93,30.29,1.2,NNE,3.5,-,N/A,,Overcast,20,2012-11-25 15:57:00
8:11 AM,39.2,37.4,93,30.30,2.0,Calm,Calm,-,N/A,,Overcast,0,2012-11-25 16:11:00
8:31 AM,39.2,37.4,93,30.30,4.0,NE,3.5,-,N/A,,Overcast,50,2012-11-25 16:31:00
8:48 AM,39.2,37.4,93,30.30,2.5,Calm,Calm,-,N/A,,Overcast,0,2012-11-25 16:48:00
8:53 AM,39.0,37.9,96,30.30,4.0,Calm,Calm,-,N/A,,Overcast,0,2012-11-25 16:53:00
9:53 AM,41.0,37.9,89,30.30,10.0,Calm,Calm,-,N/A,,Overcast,0,2012-11-25 17:53:00
10:05 AM,41.0,37.4,87,30.30,10.0,Calm,Calm,-,N/A,,Overcast,0,2012-11-25 18:05:00
10:21 AM,42.8,37.4,81,30.30,10.0,Calm,Calm,-,N/A,,Overcast,0,2012-11-25 18:21:00
10:53 AM,42.1,37.0,82,30.30,10.0,NNW,3.5,-,N/A,,Overcast,330,2012-11-25 18:53:00
11:19 AM,42.8,35.6,76,30.29,10.0,NNW,3.5,-,N/A,,Overcast,330,2012-11-25 19:19:00
11:53 AM,44.1,37.0,76,30.28,10.0,Variable,3.5,-,N/A,,Overcast,0,2012-11-25 19:53:00
12:53 PM,45.0,37.0,74,30.26,10.0,NNW,4.6,-,N/A,,Overcast,330,2012-11-25 20:53:00
1:32 PM,46.4,37.4,71,30.24,10.0,NE,4.6,-,N/A,,Partly Cloudy,50,2012-11-25 21:32:00
1:53 PM,46.9,37.9,71,30.24,10.0,NW,4.6,-,N/A,,Clear,320,2012-11-25 21:53:00
2:53 PM,48.0,39.0,71,30.22,10.0,West,3.5,-,N/A,,Clear,270,2012-11-25 22:53:00
3:53 PM,48.0,37.9,68,30.21,10.0,NNW,3.5,-,N/A,,Clear,340,2012-11-25 23:53:00
4:53 PM,46.0,37.9,73,30.19,10.0,North,3.5,-,N/A,,Clear,360,2012-11-26 00:53:00
5:53 PM,44.1,37.9,79,30.18,10.0,Calm,Calm,-,N/A,,Clear,0,2012-11-26 01:53:00
6:53 PM,42.1,37.0,82,30.17,10.0,NNW,3.5,-,N/A,,Clear,340,2012-11-26 02:53:00
7:53 PM,41.0,36.0,82,30.17,10.0,North,3.5,-,N/A,,Clear,360,2012-11-26 03:53:00
8:53 PM,46.0,30.0,54,30.16,10.0,ENE,8.1,-,N/A,,Clear,70,2012-11-26 04:53:00
9:53 PM,46.9,30.0,52,30.14,10.0,East,8.1,17.3,N/A,,Clear,80,2012-11-26 05:53:00
10:53 PM,46.9,28.9,50,30.13,10.0,East,5.8,-,N/A,,Clear,90,2012-11-26 06:53:00
11:53 PM,46.9,27.0,46,30.14,10.0,East,9.2,-,N/A,,Clear,90,2012-11-26 07:53:00